[[{"header":{"parameterUnit":"m.s-1","parameterCategory":1,"la1":30.2991,"la2":30.254,"lo1":-89.0895,"lo2":-89.0444,"dy":0.0017,"dx":0.0017,"nx":28,"ny":28,"refTime":"2025-11-09T09:00:00:Z","depth":0,"parameterNumber":2,"parameterNumberName":"U-component_of_WINDS"},"data":[0,0,0,0,0,0,0,0,0,0,0,0,0,0,0,0,0,0,0,0,0,0,0,0,0,0,0,0,0,0,0,0,0,0,0,0,0,0,0,0,0,0,0,0,0,0,0,0,0,0,0,0,0,0,0,0,0,0,2.2942,2.2942,0,2.2958,2.2958,2.2958,2.2944,2.2943,2.2943,2.2942,2.2958,2.2959,2.296,0,0,0,0,0,0,0,0,0,0,0,0,0,2.2901,2.2902,2.2942,2.2942,2.2943,2.2958,2.2958,2.2958,2.2944,2.2943,2.2942,2.2942,2.2958,2.2959,2.296,0,0,0,0,0,0,0,0,0,0,0,0,0,2.2918,2.2902,2.2942,2.2937,2.2937,2.2958,2.2958,2.2958,2.2944,2.2943,2.2942,2.2941,2.2957,2.2959,2.296,2.2987,0,0,2.2964,2.2965,0,0,0,0,0,0,0,0,2.2917,2.2919,2.2938,2.2938,2.2937,2.2948,2.2949,2.2968,2.2944,2.2941,2.2942,2.2941,2.2955,2.2957,2.2962,2.2987,2.2988,2.2965,2.2965,2.2966,2.2967,0,0,0,0,0,0,0,2.2916,2.2919,2.2948,2.2938,2.2938,2.2935,2.2936,2.2953,2.2953,2.2942,2.294,2.2943,2.2955,2.296,2.2962,2.2988,2.2965,2.2966,2.2967,2.2967,2.3038,2.3039,0,0,0,0,0,0,2.2915,2.2918,2.2948,2.2949,2.2925,2.2936,2.2938,2.2945,2.2953,2.2953,2.2943,2.2942,2.2958,2.296,2.2962,2.2995,2.2966,2.2967,2.2968,2.3037,2.3038,2.3039,0,0,0,0,0,0,2.2914,2.2918,2.2947,2.2933,2.2937,2.2938,2.2947,2.2946,2.2952,2.2954,2.2954,2.2949,2.2958,2.296,2.2981,2.2995,2.2968,2.2969,2.3036,2.3037,2.3039,2.3059,0,0,0,0,0,0,2.2913,2.2918,2.2927,2.2933,2.2937,2.2965,2.2947,2.2947,2.2954,2.2952,2.2959,2.2959,2.2957,2.2979,2.2982,2.2996,2.2971,2.3035,2.3037,2.3038,2.3057,2.3061,2.3064,0,0,0,0,0,2.2912,2.2932,2.2928,2.2932,2.295,2.2966,2.2968,2.2965,2.2955,2.2965,2.2967,2.2959,2.2993,2.2981,2.2985,2.3,2.3034,2.3036,2.3038,2.3055,2.306,2.3064,0,0,0,0,0,0,2.2927,2.2932,2.2928,2.2951,2.2958,2.2964,2.2976,2.297,2.298,2.2978,2.2974,2.2976,2.2998,2.3001,2.2988,2.3026,2.3012,2.3015,2.3023,2.3028,2.3031,2.303,2.2972,0,0,0,0,0,2.2933,2.2946,2.295,2.297,2.2974,2.2975,2.2982,2.2979,2.2986,2.2989,2.2992,2.3,2.3012,2.302,2.3032,2.3058,2.3059,2.307,2.3073,2.3076,2.3079,2.3093,2.3098,2.3047,2.3047,2.3047,0,0,2.2945,2.295,2.2958,2.2973,2.2978,2.2992,2.2977,2.2992,2.3002,2.2991,2.3011,2.3014,2.3022,2.3046,2.3056,2.3049,2.3094,2.3079,2.3082,2.3082,2.3096,2.3101,2.3105,2.3048,2.3048,2.3048,0,0,2.2975,2.298,2.2997,2.3003,2.3012,2.3012,2.3017,2.3023,2.3025,2.3045,2.3038,2.305,2.3071,2.3078,2.3084,2.3118,2.3112,2.3123,2.3141,2.3155,2.3159,2.3163,2.3175,2.318,2.3125,2.3125,2.3125,0,2.2989,2.3009,2.3006,2.3022,2.3029,2.3021,2.3039,2.3045,2.3057,2.3062,2.3054,2.3082,2.3087,2.3112,2.3121,2.3126,2.3131,2.3121,2.3159,2.3162,2.3166,2.3178,2.3182,2.3126,2.3126,2.3126,2.3126,0,2.3026,2.304,2.3053,2.3066,2.3075,2.3091,2.3092,2.3101,2.3099,2.3101,2.3122,2.3128,2.3141,2.3147,2.3144,2.3172,2.3168,2.3159,2.3144,2.3172,2.3183,2.3187,2.3128,2.3128,2.3127,2.3127,0,0,2.3063,2.3076,2.308,2.3086,2.3096,2.3107,2.3125,2.3138,2.3146,2.3155,2.317,2.3189,2.3182,2.3189,2.3187,2.32,2.3228,2.3191,2.3191,2.3197,2.326,2.3265,2.327,2.3224,2.3225,2.3225,2.3259,0,2.3093,2.3122,2.3122,2.3149,2.3163,2.3156,2.3172,2.318,2.3182,2.3195,2.3198,2.3212,2.3201,2.3206,2.3218,2.3222,2.324,2.3219,2.3237,2.3238,2.3234,2.3276,2.3281,2.3312,2.3263,2.3264,2.3264,0,2.313,2.3142,2.3171,2.318,2.3186,2.3199,2.3212,2.3224,2.3234,2.3235,2.3244,2.3241,2.3259,2.3245,2.327,2.3256,2.3263,2.3267,2.3268,2.3268,2.3252,2.3277,2.3322,2.3327,2.3271,2.3271,2.327,0,2.3154,2.3177,2.3197,2.3203,2.3214,2.3224,2.3229,2.3238,2.3247,2.3258,2.3264,2.3278,2.3285,2.3296,2.3297,2.3286,2.3322,2.3308,2.3324,2.3324,2.333,2.333,2.3377,2.3337,2.3337,2.3337,2.3337,0,2.3187,2.3205,2.3208,2.3221,2.3241,2.3241,2.3261,2.3266,2.3274,2.3288,2.3284,2.3297,2.3298,2.3311,2.3313,2.3334,2.3337,2.3339,2.3338,2.3338,2.3338,2.3342,2.334,2.3338,2.3338,2.3337,2.3337,0,2.3216,2.3219,2.3241,2.3251,2.3254,2.3268,2.3277,2.3289,2.3293,2.331,2.3314,2.3319,2.3335,2.3338,2.3356,2.3357,2.3382,2.3381,2.3379,2.3378,2.3394,2.3392,2.3444,2.3451,2.3408,2.3408,2.3409,0,2.3236,2.325,2.3261,2.3271,2.3276,2.3291,2.33,2.3301,2.3311,2.3324,2.3335,2.3351,2.3364,2.339,2.3395,2.341,2.3408,2.3425,2.341,2.341,2.3408,2.3406,2.3408,2.3428,2.3428,2.3429,2.3429,0,2.3271,2.3272,2.3285,2.33,2.3311,2.3322,2.3333,2.3341,2.3344,2.3355,2.3371,2.3381,2.3401,2.3417,2.3432,2.3438,2.3434,2.3434,2.3438,2.3438,2.3436,2.3437,2.3386,2.3432,2.3432,2.3432,2.3432,2.3431,2.3296,2.3308,2.3319,2.3334,2.3342,2.3353,2.3365,2.3371,2.3385,2.3401,2.3401,2.342,2.3431,2.3451,2.3458,2.3472,2.3467,2.3473,2.3475,2.3476,2.3477,2.3435,2.3475,2.3475,2.3475,2.3475,2.3475,0,2.333,2.3337,2.3351,2.3367,2.3379,2.3376,2.3388,2.3398,2.3415,2.3425,2.3438,2.3458,2.3474,2.3482,2.3498,2.3508,2.3507,2.3512,2.3511,2.3512,2.3482,2.3476,2.3513,2.3513,2.3513,2.3513,2.3513,2.3513,2.3349,2.337,2.3373,2.3399,2.3406,2.3424,2.3431,2.3441,2.345,2.3472,2.3486,2.3491,2.3501,2.3518,2.3533,2.3535,2.354,2.3547,2.3548,2.3518,2.3514,2.3511,2.3505,2.3548,2.3548,2.3577,2.3577,2.3578]},{"header":{"parameterUnit":"m.s-1","parameterCategory":1,"la1":30.2991,"la2":30.254,"lo1":-89.0895,"lo2":-89.0444,"dy":0.0017,"dx":0.0017,"nx":28,"ny":28,"refTime":"2025-11-09T09:00:00:Z","depth":0,"parameterNumber":3,"parameterNumberName":"V-component_of_WINDS"},"data":[0,0,0,0,0,0,0,0,0,0,0,0,0,0,0,0,0,0,0,0,0,0,0,0,0,0,0,0,0,0,0,0,0,0,0,0,0,0,0,0,0,0,0,0,0,0,0,0,0,0,0,0,0,0,0,0,0,0,-8.371,-8.3711,0,-8.3865,-8.3867,-8.3868,-8.3779,-8.3775,-8.377,-8.3766,-8.3918,-8.3926,-8.3934,0,0,0,0,0,0,0,0,0,0,0,0,0,-8.333,-8.3337,-8.3709,-8.3711,-8.3713,-8.3865,-8.3867,-8.3869,-8.378,-8.3774,-8.3769,-8.3764,-8.3915,-8.3925,-8.3934,0,0,0,0,0,0,0,0,0,0,0,0,0,-8.3491,-8.334,-8.3709,-8.3687,-8.3687,-8.3864,-8.3867,-8.3869,-8.3781,-8.3774,-8.3768,-8.3762,-8.3912,-8.3924,-8.3936,-8.4141,0,0,-8.3973,-8.3978,0,0,0,0,0,0,0,0,-8.3482,-8.3505,-8.3689,-8.3689,-8.3689,-8.3796,-8.3788,-8.396,-8.3782,-8.3745,-8.3766,-8.3758,-8.3882,-8.3896,-8.3939,-8.4148,-8.4155,-8.3974,-8.3981,-8.3986,-8.399,0,0,0,0,0,0,0,-8.3471,-8.3497,-8.3771,-8.3691,-8.3692,-8.3668,-8.3683,-8.3821,-8.3848,-8.3748,-8.3742,-8.3762,-8.3881,-8.3928,-8.3942,-8.4157,-8.3974,-8.3984,-8.3992,-8.3997,-8.4544,-8.4551,0,0,0,0,0,0,-8.3462,-8.3489,-8.3766,-8.3775,-8.3567,-8.368,-8.3697,-8.3768,-8.3846,-8.3852,-8.3767,-8.3757,-8.391,-8.3928,-8.3947,-8.4194,-8.3986,-8.3998,-8.4005,-8.4536,-8.4545,-8.4553,0,0,0,0,0,0,-8.3454,-8.3487,-8.3759,-8.3631,-8.3664,-8.3694,-8.3774,-8.3775,-8.3822,-8.3861,-8.3865,-8.3811,-8.3906,-8.393,-8.4095,-8.4198,-8.4003,-8.4014,-8.4528,-8.4539,-8.4549,-8.469,0,0,0,0,0,0,-8.3444,-8.3485,-8.3565,-8.3633,-8.3671,-8.3907,-8.378,-8.3782,-8.3844,-8.3832,-8.3903,-8.3908,-8.3903,-8.4077,-8.4107,-8.4212,-8.4024,-8.4519,-8.4533,-8.4546,-8.4676,-8.4704,-8.4728,0,0,0,0,0,-8.343,-8.3596,-8.3569,-8.3603,-8.3771,-8.3913,-8.3934,-8.3926,-8.3853,-8.3932,-8.3958,-8.3906,-8.4182,-8.4095,-8.4127,-8.4237,-8.4512,-8.4529,-8.4545,-8.4664,-8.4698,-8.4727,0,0,0,0,0,0,-8.3536,-8.3605,-8.3576,-8.3769,-8.3836,-8.3897,-8.3997,-8.3963,-8.405,-8.4035,-8.4019,-8.4036,-8.4208,-8.4238,-8.414,-8.4441,-8.4335,-8.4359,-8.4415,-8.4448,-8.4474,-8.4463,-8.4034,0,0,0,0,0,-8.3582,-8.3694,-8.3746,-8.3912,-8.3947,-8.3967,-8.4028,-8.4017,-8.4085,-8.4112,-8.4149,-8.4215,-8.4317,-8.4384,-8.4479,-8.468,-8.4694,-8.4772,-8.4798,-8.4819,-8.4839,-8.4949,-8.4984,-8.4607,-8.4606,-8.4606,0,0,-8.3678,-8.3729,-8.38,-8.3934,-8.3985,-8.4099,-8.3991,-8.4116,-8.42,-8.413,-8.4289,-8.4318,-8.4391,-8.4575,-8.4657,-8.4605,-8.4947,-8.484,-8.4856,-8.4865,-8.497,-8.5005,-8.5037,-8.4618,-8.4616,-8.4614,0,0,-8.3911,-8.3961,-8.4106,-8.416,-8.4239,-8.4251,-8.4286,-8.4354,-8.4372,-8.4532,-8.4482,-8.458,-8.4756,-8.481,-8.486,-8.5117,-8.5073,-8.5148,-8.5285,-8.5392,-8.5422,-8.5448,-8.554,-8.5574,-8.5169,-8.5169,-8.5169,0,-8.4019,-8.4192,-8.4183,-8.4314,-8.4374,-8.4319,-8.4465,-8.4516,-8.4622,-8.4664,-8.4605,-8.4826,-8.487,-8.5067,-8.5131,-8.5173,-8.5211,-8.514,-8.5418,-8.5445,-8.5469,-8.5557,-8.5592,-8.5178,-8.5177,-8.5176,-8.5175,0,-8.4321,-8.4442,-8.4548,-8.4656,-8.4728,-8.4865,-8.4876,-8.495,-8.4933,-8.4952,-8.5115,-8.5167,-8.5273,-8.5319,-8.5302,-8.5514,-8.548,-8.542,-8.5314,-8.5514,-8.5597,-8.563,-8.519,-8.5187,-8.5185,-8.5182,0,0,-8.4624,-8.4728,-8.4767,-8.4816,-8.4901,-8.4992,-8.5126,-8.5233,-8.5298,-8.5372,-8.5484,-8.5635,-8.5582,-8.5639,-8.5628,-8.5722,-8.5924,-8.5651,-8.5652,-8.57,-8.6161,-8.6207,-8.6246,-8.5895,-8.5901,-8.5906,-8.6156,0,-8.4864,-8.5102,-8.5099,-8.5319,-8.543,-8.5381,-8.5497,-8.5561,-8.5583,-8.5678,-8.57,-8.5808,-8.5728,-8.5763,-8.5854,-8.588,-8.6016,-8.5862,-8.5998,-8.6003,-8.5983,-8.6289,-8.6336,-8.6569,-8.6188,-8.6193,-8.6197,0,-8.5175,-8.5264,-8.5496,-8.5567,-8.5613,-8.5719,-8.5818,-8.591,-8.5981,-8.599,-8.6056,-8.6031,-8.6166,-8.6056,-8.6242,-8.6137,-8.6193,-8.6214,-8.6223,-8.6236,-8.6113,-8.631,-8.6643,-8.6679,-8.6248,-8.6244,-8.624,0,-8.5374,-8.5552,-8.5714,-8.5757,-8.5843,-8.5919,-8.5958,-8.6023,-8.6088,-8.6173,-8.6215,-8.6314,-8.6369,-8.6445,-8.6447,-8.6366,-8.6635,-8.6525,-8.6645,-8.6646,-8.6704,-8.6701,-8.7052,-8.6739,-8.6739,-8.6738,-8.6737,0,-8.5642,-8.5786,-8.5805,-8.5905,-8.6065,-8.606,-8.6218,-8.6249,-8.6308,-8.6412,-8.6374,-8.6471,-8.6468,-8.6567,-8.6568,-8.6723,-8.6747,-8.6757,-8.6756,-8.6761,-8.676,-8.6797,-8.6782,-8.6747,-8.6745,-8.6743,-8.6742,0,-8.5892,-8.591,-8.6084,-8.6153,-8.6173,-8.6288,-8.6346,-8.644,-8.6459,-8.6591,-8.6622,-8.665,-8.6765,-8.6774,-8.6906,-8.6907,-8.7095,-8.7075,-8.7072,-8.7069,-8.7189,-8.7178,-8.7577,-8.7629,-8.7282,-8.7286,-8.7288,0,-8.6062,-8.6172,-8.6254,-8.6323,-8.6367,-8.6477,-8.6545,-8.6544,-8.6615,-8.6706,-8.679,-8.6902,-8.6991,-8.7177,-8.7208,-8.7309,-8.7292,-8.7425,-8.7307,-8.7309,-8.7295,-8.7289,-8.73,-8.7448,-8.7451,-8.7455,-8.7457,0,-8.6363,-8.6367,-8.6467,-8.6572,-8.6655,-8.6736,-8.6812,-8.6869,-8.6878,-8.6959,-8.7079,-8.7149,-8.7285,-8.7397,-8.7497,-8.7534,-8.7498,-8.7494,-8.7528,-8.7535,-8.7529,-8.7535,-8.7136,-8.7485,-8.7482,-8.748,-8.7479,-8.7478,-8.6578,-8.6675,-8.6749,-8.6862,-8.692,-8.6992,-8.7086,-8.7117,-8.7217,-8.7331,-8.7324,-8.7455,-8.7524,-8.7655,-8.77,-8.7802,-8.7757,-8.7805,-8.7817,-8.7829,-8.7843,-8.7513,-8.782,-8.7819,-8.7818,-8.7818,-8.7817,0,-8.6878,-8.6924,-8.7028,-8.7138,-8.7227,-8.7188,-8.7271,-8.7347,-8.7465,-8.7534,-8.7624,-8.7761,-8.7869,-8.791,-8.8016,-8.8089,-8.8075,-8.8117,-8.8112,-8.8121,-8.7876,-8.7838,-8.8127,-8.8127,-8.8127,-8.8127,-8.8127,-8.8127,-8.7045,-8.7207,-8.722,-8.7411,-8.7454,-8.7586,-8.7637,-8.7703,-8.7759,-8.7915,-8.8006,-8.8033,-8.8091,-8.82,-8.8298,-8.8307,-8.8348,-8.8397,-8.8399,-8.8169,-8.8138,-8.8108,-8.8072,-8.8406,-8.8406,-8.8636,-8.8638,-8.8639]}]]